星链-37293(STARLINK-37293)

导读

STARLINK-37293(NORAD编号68978)是美国SpaceX公司星链(Starlink)卫星互联网星座的一员,属于低轨通信卫星,运行在近地轨道(LEO),旨在为全球提供高速低延迟的互联网接入服务。作为星链大规模组网部署的卫星之一,它延续了星链星座小型化设计,服务覆盖偏远地区、海洋及空中等基础设施薄弱区域,也可支持应急通信与特殊场景通信需求。目前该卫星随星链星座持续扩展,在轨参与全球卫星互联网服务组网,不过星链大规模低轨星座也引发了太空拥堵与天文观测干扰等争议。

基本信息
目录编号:
68978
目录名称:
STARLINK-37293
国际标识:
2026-099AD
轨道中心:
EARTH
卫星名称:
星链-37293
卫星全名:
星链-37293(STARLINK-37293)
卫星状态:
在轨 (已飞行126 天)
发射日期:
2026-05-01 UTC
国别 :
美国 (US)
星等 :
--
轨道信息
数据来源 国际轨道数据
星历时间: 2026-09-03T19:08:22+0800
17小时前
查看轨道信息
半长轴: 6840.817km
偏心率: 0.0000864
轨道倾角: 53.159°
近地点辐角 124.495°
升交点赤经 155.087°
平近点角 235.613°
近地点: 462.088km
远地点: 463.272km
周期: 93.847分钟
每日圈数: 15.344081
详细信息
固有亮度:
5
最大亮度:
2.5
卫星平台:
Starlink V1.0
覆盖范围:
全球
运营商:
太空探索技术公司
运营商所在国:
美国
制造商(研发单位):
太空探索技术公司
制造商所在国:
美国
使用方式:
暂无
卫星简介
Starlink 计划是 SpaceX 推出的全球卫星互联网项目,通过发射低轨道卫星,为全球尤其是偏远地区提供高速、低延迟的互联网服务。自 2019 年起,Starlink 已部署数千颗卫星,旨在缩小全球数字鸿沟,推动互联网普及。该项目还为军事、航空等行业提供通信支持,带来广泛经济效益。
2D轨道图
3D轨道图
轨道高度分析图
轨道倾角分析图
轨道综合分析图
查看轨道综合分析图
交会数据列表
事件ID 空间交会对象 最接近时刻(TCA) 交会距离 交会风险概率(CRP) 交会风险指数(CRI) 操作
CDM_260828-142605-246906-897821
2026-08-28T
14:26:21+0000
2.464 km
极远距离
1.609202E-6 低风险 0.39
CDM_260827-195704-972706-897821
2026-08-27T
19:57:00+0000
2.839 km
极远距离
1.032467E-6 低风险 0.35
CDM_260827-222106-638806-897821
2026-08-27T
22:21:33+0000
2.437 km
极远距离
9.459502E-7 极低风险 0.35